Starlink 6116

operational
NORAD ID: 56911 Int'l Des: 2023-083 Owner: SPXS Country: US Constellation: starlink
LEOCIRCULAR

Starlink 6116について

説明を読み込み中...

リアルタイム位置

3D地球を読み込み中...

次回通過

高度履歴

Altitude vs Time

uPlot chart will show altitude changes over time

軌道要素

1 56911U 23083AM 25354.69539806 -.00001552 00000-0 -99864-4 0 9998
2 56911 42.9999 138.3489 0000344 200.4512 159.6317 15.02531823139934
Epoch: Dec 20, 2025 • Age: 8 hours

現在のステータス

高度 562.3 km
速度 7.59 km/s
衛星直下点 43.12°N, 123.21°E
打ち上げ日 Jun 12, 2023
運用期間 2.5 years
タイプ internet

技術仕様

分類 Payload
質量 305.00 kg
乾燥質量 290.00 kg
総質量 305.00 kg
長さ 0.20 m
直径 2.80 m
スパン 9.00 m
形状 Box + pan
製造者 SPXS
バスタイプ Starlink
フェーズステータス In Orbit
所有者/国 SPXS/US

大規模コンステレーション

Loading constellations...